Weather History for Delaware, OH

Change the Weather History Date:

Tuesday, October 1, 2013

  Actual Average Record
Temperature  
Mean Temperature 64 °F -  
Max Temperature 77 °F 70 °F 88 °F (1937)
Min Temperature 50 °F 46 °F 31 °F (1947)
Degree Days  
Heating Degree Days 2    
Growing Degree Days 14 (Base 50)    
Moisture  
Dew Point 54 °F    
Average Humidity 77    
Maximum Humidity 100    
Minimum Humidity 44    
Precipitation  
Precipitation 0.00 in - - ()
Sea Level Pressure  
Sea Level Pressure 30.05 in    
Wind  
Wind Speed 2 mph (SW)    
Max Wind Speed 12 mph    
Max Gust Speed 18 mph    
Visibility 7 miles    
Events Fog    
Averages and records for this station are not official NWS values.
T = Trace of Precipitation, MM = Missing Value Source: NWS Daily Summary

Daily Weather History Graph

Daily Weather History Graph

Search for Another Location

Airport:

Trip Planner

Search our weather history database for the weather conditions in past years. The results will help you decide how hot, cold, wet, or windy it might be!

Date:

Astronomy

Oct. 01, 2013 Rise Set
Actual Time 7:29 AM EDT 7:14 PM EDT
Civil Twilight 7:01 AM EDT 7:41 PM EDT
Nautical Twilight 6:30 AM EDT 8:12 PM EDT
Astronomical Twilight 5:58 AM EDT 8:44 PM EDT
Moon 4:01 AM EDT (10/1) 5:17 PM EDT (10/1)
Length of Visible Light 12h 39m
Length of Day
11h 45m
Waning Crescent, 12% of the Moon is Illuminated
Oct 1
Waning Crescent
Oct 4
New
Oct 11
First Quarter
Oct 18
Full
Oct 26
Last Quarter

Hourly Weather History & Observations

Time (EDT) Temp. Dew Point Humidity Pressure Visibility Wind Dir Wind Speed Gust Speed Precip Events Conditions
12:17 AM 53.6 °F 51.8 °F 94% 30.03 in 5.0 mi Calm Calm - N/A   Clear
12:36 AM 53.6 °F 51.8 °F 94% 30.03 in 3.0 mi Calm Calm - N/A   Clear
12:57 AM 51.8 °F 50.0 °F 94% 30.02 in 4.0 mi Calm Calm - N/A   Clear
1:17 AM 51.8 °F 50.0 °F 94% 30.02 in 2.5 mi Calm Calm - N/A   Clear
1:36 AM 51.8 °F 50.0 °F 94% 30.02 in 4.0 mi Calm Calm - N/A   Clear
1:57 AM 51.8 °F 50.0 °F 94% 30.02 in 3.0 mi Calm Calm - N/A   Clear
2:16 AM 51.8 °F 50.0 °F 94% 30.03 in 4.0 mi Calm Calm - N/A   Clear
2:36 AM 51.8 °F 50.0 °F 94% 30.03 in 2.5 mi Calm Calm - N/A   Clear
2:57 AM 51.8 °F 50.0 °F 94% 30.03 in 3.0 mi Calm Calm - N/A   Clear
3:16 AM 50.0 °F 50.0 °F 100% 30.03 in 1.0 mi Calm Calm - N/A   Mist
3:36 AM 51.8 °F 51.8 °F 100% 30.03 in 3.0 mi South 3.5 mph - N/A   Clear
3:57 AM 55.4 °F 53.6 °F 94% 30.03 in 4.0 mi SSW 3.5 mph - N/A   Clear
4:16 AM 53.6 °F 51.8 °F 94% 30.03 in 3.0 mi Calm Calm - N/A   Clear
4:37 AM 51.8 °F 50.0 °F 94% 30.03 in 2.0 mi Calm Calm - N/A   Clear
4:56 AM 51.8 °F 50.0 °F 94% 30.03 in 2.0 mi Calm Calm - N/A   Clear
4:58 AM 51.8 °F 50.0 °F 94% 30.03 in 2.0 mi Calm Calm - N/A   Clear
5:25 AM 51.8 °F 50.0 °F 94% 30.04 in 1.8 mi Calm Calm - N/A   Unknown
5:45 AM 50.0 °F 50.0 °F 100% 30.05 in 2.5 mi Calm Calm - N/A   Clear
6:05 AM 51.8 °F 50.0 °F 94% 30.05 in 0.5 mi Calm Calm - N/A   Unknown
6:23 AM 50.0 °F 48.2 °F 94% 30.06 in 0.2 mi Calm Calm - N/A Fog Fog
6:36 AM 51.8 °F 50.0 °F 94% 30.07 in 0.2 mi Calm Calm - N/A Fog Fog
6:56 AM 50.0 °F 48.2 °F 94% 30.07 in 1.5 mi Calm Calm - N/A   Mist
7:17 AM 50.0 °F 48.2 °F 94% 30.08 in 0.5 mi Calm Calm - N/A Fog Fog
7:36 AM 50.0 °F 46.4 °F 87% 30.08 in 0.2 mi Calm Calm - N/A Fog Fog
7:56 AM 50.0 °F 48.2 °F 94% 30.08 in 0.2 mi Calm Calm - N/A Fog Fog
8:17 AM 51.8 °F 50.0 °F 94% 30.09 in 0.2 mi Calm Calm - N/A Fog Fog
8:36 AM 55.4 °F 53.6 °F 94% 30.09 in 1.0 mi Calm Calm - N/A   Mist
8:56 AM 59.0 °F 55.4 °F 88% 30.09 in 2.0 mi Calm Calm - N/A   Clear
9:17 AM 60.8 °F 59.0 °F 94% 30.10 in 3.0 mi Calm Calm - N/A   Clear
9:36 AM 62.6 °F 59.0 °F 88% 30.10 in 5.0 mi WSW 3.5 mph - N/A   Clear
9:56 AM 64.4 °F 59.0 °F 83% 30.10 in 7.0 mi SW 5.8 mph - N/A   Clear
10:17 AM 68.0 °F 60.8 °F 78% 30.10 in 7.0 mi SW 4.6 mph - N/A   Clear
10:36 AM 68.0 °F 60.8 °F 78% 30.10 in 10.0 mi WSW 4.6 mph - N/A   Clear
10:57 AM 69.8 °F 60.8 °F 73% 30.10 in 10.0 mi SW 6.9 mph - N/A   Clear
11:17 AM 71.6 °F 59.0 °F 64% 30.10 in 10.0 mi WSW 4.6 mph - N/A   Scattered Clouds
11:36 AM 71.6 °F 59.0 °F 64% 30.09 in 10.0 mi WSW 6.9 mph - N/A   Mostly Cloudy
11:57 AM 71.6 °F 59.0 °F 64% 30.09 in 10.0 mi WSW 8.1 mph - N/A   Overcast
12:17 PM 73.4 °F 59.0 °F 61% 30.08 in 10.0 mi SW 10.4 mph - N/A   Mostly Cloudy
12:36 PM 71.6 °F 55.4 °F 57% 30.08 in 10.0 mi WSW 6.9 mph - N/A   Scattered Clouds
12:57 PM 73.4 °F 55.4 °F 53% 30.08 in 10.0 mi West 9.2 mph - N/A   Mostly Cloudy
1:17 PM 73.4 °F 55.4 °F 53% 30.07 in 10.0 mi WSW 6.9 mph - N/A   Scattered Clouds
1:36 PM 73.4 °F 55.4 °F 53% 30.07 in 10.0 mi WSW 9.2 mph 16.1 mph N/A   Scattered Clouds
1:57 PM 77.0 °F 55.4 °F 47% 30.06 in 10.0 mi WSW 11.5 mph - N/A   Scattered Clouds
2:17 PM 77.0 °F 55.4 °F 47% 30.06 in 10.0 mi SW 11.5 mph - N/A   Mostly Cloudy
2:36 PM 75.2 °F 55.4 °F 50% 30.05 in 10.0 mi SW 9.2 mph - N/A   Mostly Cloudy
2:57 PM 75.2 °F 55.4 °F 50% 30.05 in 10.0 mi WSW 6.9 mph - N/A   Mostly Cloudy
3:16 PM 75.2 °F 55.4 °F 50% 30.04 in 10.0 mi SW 8.1 mph 16.1 mph N/A   Mostly Cloudy
3:36 PM 77.0 °F 55.4 °F 47% 30.04 in 10.0 mi SW 11.5 mph 17.3 mph N/A   Scattered Clouds
3:57 PM 77.0 °F 53.6 °F 44% 30.03 in 10.0 mi WSW 10.4 mph 18.4 mph N/A   Scattered Clouds
4:16 PM 77.0 °F 55.4 °F 47% 30.03 in 10.0 mi West 6.9 mph - N/A   Scattered Clouds
4:36 PM 75.2 °F 55.4 °F 50% 30.03 in 10.0 mi West 8.1 mph - N/A   Mostly Cloudy
4:57 PM 75.2 °F 55.4 °F 50% 30.03 in 10.0 mi WSW 9.2 mph - N/A   Scattered Clouds
5:16 PM 75.2 °F 55.4 °F 50% 30.03 in 10.0 mi SW 10.4 mph - N/A   Clear
5:36 PM 73.4 °F 53.6 °F 50% 30.03 in 10.0 mi SW 6.9 mph - N/A   Clear
5:57 PM 73.4 °F 53.6 °F 50% 30.03 in 10.0 mi WSW 5.8 mph - N/A   Clear
6:16 PM 73.4 °F 53.6 °F 50% 30.03 in 10.0 mi SW 5.8 mph - N/A   Scattered Clouds
6:36 PM 71.6 °F 53.6 °F 53% 30.03 in 10.0 mi SW 5.8 mph - N/A   Scattered Clouds
6:57 PM 71.6 °F 53.6 °F 53% 30.03 in 10.0 mi SW 4.6 mph - N/A   Clear
7:16 PM 68.0 °F 53.6 °F 60% 30.03 in 10.0 mi SW 3.5 mph - N/A   Clear
7:37 PM 66.2 °F 53.6 °F 64% 30.03 in 10.0 mi SSW 3.5 mph - N/A   Clear
7:57 PM 60.8 °F 53.6 °F 77% 30.03 in 10.0 mi SW 3.5 mph - N/A   Clear
8:16 PM 60.8 °F 53.6 °F 77% 30.03 in 10.0 mi SSW 3.5 mph - N/A   Clear
8:37 PM 60.8 °F 53.6 °F 77% 30.03 in 10.0 mi SSW 3.5 mph - N/A   Clear
8:57 PM 62.6 °F 55.4 °F 77% 30.04 in 10.0 mi SSW 3.5 mph - N/A   Clear
9:16 PM 59.0 °F 53.6 °F 82% 30.04 in 10.0 mi SSW 4.6 mph - N/A   Clear
9:37 PM 60.8 °F 55.4 °F 82% 30.04 in 10.0 mi SSW 4.6 mph - N/A   Clear
9:57 PM 60.8 °F 55.4 °F 82% 30.05 in 10.0 mi SSW 3.5 mph - N/A   Clear
10:16 PM 60.8 °F 55.4 °F 82% 30.05 in 10.0 mi SSW 4.6 mph - N/A   Clear
10:37 PM 60.8 °F 55.4 °F 82% 30.05 in 10.0 mi SSW 3.5 mph - N/A   Clear
10:57 PM 57.2 °F 53.6 °F 88% 30.06 in 10.0 mi Calm Calm - N/A   Clear
11:16 PM 55.4 °F 53.6 °F 94% 30.06 in 10.0 mi Calm Calm - N/A   Clear
11:37 PM 53.6 °F 51.8 °F 94% 30.06 in 7.0 mi Calm Calm - N/A   Clear
11:57 PM 55.4 °F 53.6 °F 94% 30.06 in 10.0 mi SSW 3.5 mph - N/A   Clear